User: anonymous   Login
Location: La B�doule
(43.2468°N, 5.5934°E)
Time: 11:26:53
(UTC+00:00)
Language:

STARLINK-71 - Orbit

View from above orbital plane
View from above orbital plane
View from above satellite
View from above satellite

Ground track
Ground track

The orbit data is extracted from the following two-line orbital elements,

1 44252U 19029T   21166.85065163  .00004341  00000-0  22637-3 0  9993
2 44252  52.9979 357.3648 0001248 132.7837 227.3262 15.17961612113101
Epoch (UTC): 15 June 2021 20:24:56
Eccentricity: 0.0001248
inclination: 52.9979°
perigee height: 511 km
apogee height: 513 km
right ascension of ascending node: 357.3648°
argument of perigee: 132.7837°
revolutions per day: 15.17961612
mean anomaly at epoch: 227.3262°
orbit number at epoch: 11310

The dashed part of the orbit path shows where the satellite is in the earth's shadow,  

DLR